Theta_e
326 325 324 323 322 321 320 318 318 318 317 316 316 314 313 312 308 303 299 299 297 297 297 296 296 296 296 296 296 296 296 296 296 297 296 296 297 296 296 297 297 296 296 295 295 294 294 294 294 294 294 294 294 294 293 293 293 293 293 293 293 293 293 293 293 293 293 294 294 294 294 294 294 294 294 295 295 295 295 296 296 296 296 296 296
325 324 323 322 320 319 317 317 316 316 316 315 314 313 312 310 304 299 298 298 297 296 296 296 296 296 296 296 296 296 296 296 296 296 296 296 297 296 296 296 296 296 296 295 295 294 294 294 294 294 294 294 294 293 293 293 293 293 293 293 293 293 293 293 293 293 293 293 293 293 293 293 293 294 294 294 294 295 296 296 296 296 296 296 296
324 323 322 321 318 316 315 315 315 314 314 314 313 311 310 307 300 298 298 297 296 296 296 296 296 296 296 296 296 296 296 296 296 296 296 296 296 297 297 296 296 296 296 295 294 294 294 294 294 294 294 294 294 293 293 293 293 293 293 293 293 293 293 293 293 293 293 293 293 293 293 293 293 293 293 294 294 295 296 296 296 296 296 296 296
323 323 322 319 316 314 314 314 314 313 312 312 311 310 308 303 299 298 298 297 296 296 296 296 296 296 296 296 296 296 296 296 295 296 296 296 296 296 297 296 296 297 296 295 295 294 294 294 294 294 294 294 294 293 293 292 293 293 293 293 293 293 293 293 293 293 293 293 293 292 293 293 293 293 293 294 294 295 295 295 296 296 295 295 295
323 323 321 319 316 314 313 313 312 311 311 310 309 308 305 300 298 298 297 297 296 296 296 296 296 295 295 296 296 296 295 295 295 295 296 296 296 296 296 295 296 297 296 296 295 295 295 295 295 295 295 295 294 293 293 293 293 293 293 293 293 293 293 293 293 293 293 293 292 292 292 292 292 292 293 293 294 295 295 295 295 295 295 295 295
323 322 319 317 315 313 312 311 311 310 310 309 308 305 302 299 299 299 298 297 296 295 296 296 295 295 296 295 296 295 295 295 295 295 295 296 296 296 296 296 296 296 296 296 296 295 295 295 295 295 295 294 293 293 293 293 293 293 293 293 293 293 293 293 293 293 293 293 293 293 293 292 292 292 293 294 294 295 295 294 294 295 295 295 295
322 321 319 317 315 313 311 311 310 310 310 309 306 302 300 300 299 299 297 297 296 296 296 296 295 295 295 295 295 295 295 295 295 295 295 296 296 296 296 296 296 296 296 296 296 296 296 296 295 295 295 294 293 293 293 293 293 293 293 293 293 293 293 293 293 293 293 293 293 293 292 292 292 292 293 294 295 294 294 294 294 294 295 295 294
322 320 319 317 314 312 312 311 310 310 309 307 304 302 301 300 299 298 297 296 296 296 295 295 295 295 295 295 295 295 295 294 294 295 295 296 296 296 296 296 296 296 296 296 296 296 296 296 296 295 295 294 293 293 293 293 293 293 293 293 293 293 293 293 293 292 293 293 293 292 292 291 292 292 293 294 295 294 294 294 294 294 294 294 294
321 320 319 317 315 313 313 312 311 310 309 306 304 302 301 299 298 297 297 296 295 295 295 295 295 295 295 295 295 295 295 294 294 295 295 295 296 296 296 296 296 296 296 296 297 296 296 296 296 296 295 293 293 293 293 293 293 293 293 293 293 293 293 293 292 292 292 292 292 291 291 291 292 293 294 294 294 294 294 294 294 294 294 294 294
321 320 319 316 314 313 312 311 310 310 309 306 304 303 301 299 298 296 296 296 295 295 295 295 295 295 295 295 295 295 294 294 294 294 295 295 296 296 296 296 296 296 295 296 296 296 297 296 296 296 294 293 293 293 293 293 293 293 293 293 293 293 293 292 292 291 291 291 291 290 290 292 293 293 294 294 294 294 293 293 294 294 294 294 294
322 321 319 316 313 312 311 311 310 310 308 306 304 302 300 298 297 296 296 295 295 295 295 295 295 295 295 295 295 295 294 294 294 294 294 295 295 296 296 296 296 296 296 296 296 296 296 296 296 295 294 293 293 293 293 293 293 293 293 292 292 293 292 292 291 291 290 290 290 290 291 292 293 294 294 294 294 293 293 293 294 294 294 294 294
322 320 318 315 312 311 311 310 310 309 307 304 302 301 299 298 297 296 296 295 295 295 295 294 295 295 295 295 295 295 294 294 294 294 294 294 295 295 295 295 296 296 296 296 295 295 296 296 295 294 293 293 294 293 293 293 293 292 292 292 292 292 292 291 291 290 290 290 290 291 292 293 294 294 295 295 294 294 293 293 293 294 294 294 294
322 318 316 313 311 311 310 310 309 307 305 303 301 301 299 298 297 296 295 295 294 294 294 294 294 294 294 295 294 294 294 293 293 293 293 293 293 294 294 294 295 295 296 296 295 295 295 295 294 293 293 294 294 293 293 293 292 292 292 291 291 291 291 291 290 289 289 290 291 292 293 294 294 295 295 295 294 293 293 293 293 293 293 293 294
320 316 314 313 311 310 310 309 307 305 304 302 301 301 299 298 297 296 295 295 294 294 294 294 294 294 294 294 294 294 293 293 293 292 292 292 292 292 292 293 293 294 295 295 295 295 295 294 293 293 294 294 294 294 293 292 292 291 291 291 291 291 291 290 290 289 289 290 292 293 293 294 295 295 295 295 294 293 293 293 293 293 293 293 293
318 315 313 312 311 310 309 307 305 305 304 302 301 301 300 299 297 296 296 295 294 294 294 294 294 294 294 294 293 293 293 293 292 292 292 292 292 292 292 292 292 293 294 295 295 295 294 293 293 293 294 294 294 294 293 292 291 291 291 291 291 291 291 290 290 290 290 291 292 293 293 294 294 295 295 295 294 294 293 293 294 294 293 293 293
316 314 313 312 311 310 308 306 305 304 303 301 301 300 300 299 297 297 297 295 294 294 294 294 294 294 293 293 293 293 293 292 292 292 292 292 292 292 292 292 292 292 293 294 294 294 293 293 293 294 294 294 294 293 292 292 291 291 291 291 291 291 291 290 290 290 290 291 292 293 294 294 294 295 295 295 295 294 294 294 294 293 293 293 293
315 314 313 311 310 309 308 306 305 304 302 301 300 300 300 299 297 297 297 296 293 293 294 293 293 293 293 293 292 292 292 292 292 292 292 292 292 292 292 292 291 291 292 293 294 293 293 293 294 294 294 294 294 293 292 292 291 291 291 291 291 291 291 290 290 290 290 292 292 293 294 294 294 295 295 295 295 294 294 294 294 293 293 293 293
315 314 312 311 310 308 307 306 305 303 301 300 299 299 299 298 297 296 297 296 294 293 293 293 293 293 292 292 292 292 292 292 292 292 292 292 292 292 292 291 291 291 291 293 293 293 293 293 294 294 293 293 293 293 292 291 291 291 291 291 291 291 291 290 289 290 291 292 292 294 294 294 294 294 295 295 295 295 294 294 294 293 293 293 293
315 314 312 311 309 307 306 305 303 301 300 299 298 298 298 297 296 296 296 296 294 293 293 293 292 293 292 292 292 292 292 292 292 292 292 292 292 292 292 292 292 291 292 292 293 293 293 294 294 293 293 293 293 293 292 291 291 290 291 291 291 291 291 290 289 290 291 292 293 294 294 294 294 294 294 295 295 295 294 294 293 293 293 293 292
315 313 312 310 307 305 303 302 301 300 299 298 298 297 296 296 296 296 296 296 295 293 292 292 293 293 293 293 293 293 293 293 293 293 293 292 292 292 292 292 292 292 292 292 292 293 293 293 293 293 293 293 293 293 292 291 290 290 290 291 291 291 291 290 289 290 291 292 293 294 294 294 294 294 294 294 294 295 294 294 294 293 293 292 292
314 313 311 308 305 303 301 300 299 298 298 297 297 297 296 296 296 295 295 295 295 293 292 293 293 293 294 294 294 294 294 293 293 293 293 292 292 292 292 292 292 292 292 292 293 293 293 293 293 293 293 293 293 293 292 291 290 290 290 291 291 291 291 290 289 290 291 292 293 294 294 293 293 294 294 294 294 294 294 294 294 293 293 292 292
314 313 310 307 304 302 301 299 299 298 298 297 297 297 296 295 295 294 294 294 293 293 293 294 294 295 295 296 296 296 295 294 293 293 293 292 292 292 292 292 292 292 292 292 293 293 293 293 293 293 293 293 293 293 292 291 290 289 290 290 290 291 291 290 290 290 291 292 293 293 293 293 294 294 294 294 294 294 295 295 294 293 293 292 292
314 312 309 306 304 302 300 299 298 298 297 297 297 296 295 295 294 294 293 293 292 293 294 295 296 296 297 297 297 296 295 295 294 293 292 293 292 292 292 292 292 292 292 293 294 294 294 294 294 293 293 293 293 292 292 291 290 289 290 290 290 291 291 291 290 289 290 292 293 293 293 293 294 294 294 294 294 294 295 295 294 293 293 292 292
313 311 308 307 305 302 300 299 298 298 297 297 296 296 295 294 293 293 293 292 293 294 296 297 297 298 298 298 297 297 296 295 295 294 293 293 293 293 292 292 293 293 293 294 294 294 294 294 293 293 293 293 292 292 292 291 290 290 290 290 290 290 291 291 290 289 290 291 293 293 293 294 294 294 294 294 294 294 294 295 295 294 293 293 293
312 310 308 306 304 302 300 299 298 298 298 297 296 295 294 294 293 293 292 293 294 296 297 298 298 298 298 298 298 297 296 296 296 294 293 292 293 293 293 293 293 293 294 294 294 294 294 294 294 294 294 293 293 292 292 291 290 290 290 290 290 290 290 291 290 289 289 291 293 293 293 294 294 294 294 294 294 294 294 295 295 295 294 294 294
311 309 307 305 303 301 300 300 300 299 299 298 297 295 294 293 293 293 293 294 296 297 298 298 299 298 299 299 298 297 297 297 296 295 293 292 293 293 293 293 293 294 294 294 294 294 294 294 294 294 294 294 294 293 292 291 291 290 290 290 290 290 290 290 291 289 289 290 292 293 293 294 294 294 293 294 294 294 294 294 295 295 294 294 294
310 308 306 303 302 301 300 300 301 300 300 299 297 295 295 294 293 294 294 295 297 298 299 299 299 299 299 299 298 298 297 297 296 295 294 293 292 293 294 294 294 294 295 295 295 295 295 294 294 295 295 295 295 294 293 292 292 291 290 290 290 290 289 290 290 290 289 290 291 293 293 293 294 294 293 293 294 294 294 293 294 295 294 294 294
310 307 304 302 301 301 301 301 301 301 300 300 298 296 295 294 294 295 295 296 297 299 299 299 299 299 299 299 298 298 298 296 296 295 294 293 292 292 293 294 295 295 295 295 295 295 295 295 295 295 295 295 295 294 294 293 292 292 291 290 290 290 290 289 290 290 290 289 290 292 293 293 293 294 293 293 293 294 294 293 294 294 294 294 293
308 306 303 302 302 302 301 301 301 301 300 300 298 296 295 295 296 296 297 297 298 299 299 299 299 299 299 299 298 298 298 296 295 294 294 293 293 293 293 293 295 295 295 295 295 296 296 296 296 296 296 296 296 295 294 293 292 292 292 291 290 290 290 289 289 290 290 289 290 291 292 293 293 294 294 293 293 293 293 293 293 294 295 294 293
307 304 303 302 302 302 302 302 301 301 300 299 298 297 296 297 297 298 298 299 300 300 300 300 299 299 299 299 298 298 297 296 295 294 293 293 293 293 293 293 294 295 295 295 296 296 296 296 296 296 296 296 296 296 295 293 293 292 292 292 291 290 290 289 289 289 290 290 289 290 292 293 293 293 294 294 293 293 293 293 293 294 294 294 294
306 304 303 302 302 302 302 301 301 301 300 299 298 297 297 298 298 298 299 300 301 301 300 300 299 299 299 299 298 298 296 295 294 293 293 293 293 293 293 293 294 295 295 296 296 296 296 296 296 296 296 296 296 296 295 294 293 292 292 292 292 291 290 290 289 289 289 290 289 290 291 292 293 293 294 294 294 294 293 293 293 293 294 294 294
306 305 303 303 302 302 302 301 301 300 300 299 298 297 297 298 298 299 300 301 301 300 300 299 299 299 299 299 299 299 297 295 294 293 294 293 293 293 293 294 295 295 296 296 296 296 296 297 297 297 296 296 296 296 296 294 293 293 292 292 292 292 291 290 290 289 289 289 289 289 290 291 292 293 293 294 294 294 294 293 293 293 293 294 294
307 305 303 303 302 302 301 301 301 300 299 299 298 297 297 297 298 299 301 301 300 300 300 300 300 300 300 300 300 300 298 295 294 294 294 294 294 294 294 294 295 295 296 296 296 297 297 297 297 297 297 297 297 296 296 295 293 293 293 292 292 292 292 291 290 289 289 289 289 289 289 290 291 292 293 293 293 294 294 294 293 293 293 293 294
306 305 304 303 302 302 301 301 300 300 299 299 298 297 297 297 298 300 301 301 300 300 300 300 300 300 300 301 301 299 297 294 293 294 295 295 295 295 295 295 295 296 296 296 296 297 297 297 297 297 297 297 297 297 296 296 295 294 293 292 292 292 292 292 291 290 289 289 289 289 289 290 291 292 293 293 293 293 294 294 293 293 292 293 293
306 305 304 303 303 302 301 301 300 300 299 299 298 297 296 297 299 300 301 301 301 301 301 301 301 300 300 300 299 297 295 294 294 295 297 297 297 296 296 296 296 296 296 296 297 297 297 297 297 297 297 297 297 297 297 297 296 294 293 293 293 292 292 292 291 290 290 289 289 289 289 289 290 291 292 293 293 293 293 294 294 293 292 292 293
306 305 304 303 302 302 301 301 300 300 299 299 298 296 296 298 300 301 301 301 301 301 301 300 299 298 297 296 296 296 296 297 297 297 298 299 298 297 296 296 297 297 297 297 297 297 297 297 297 297 297 297 297 297 297 297 296 294 294 293 293 293 292 292 292 291 290 290 289 289 289 289 289 290 292 292 293 293 293 293 294 294 293 292 292
306 305 304 303 302 302 301 301 300 300 300 300 298 297 297 299 301 301 301 301 300 301 300 299 297 296 296 295 296 297 298 299 298 298 299 299 299 299 298 298 298 298 298 297 297 297 297 297 297 297 297 297 297 297 297 297 296 295 294 294 294 294 293 293 292 292 291 290 290 289 289 289 289 290 291 292 293 293 293 293 293 294 294 293 292
306 305 304 303 302 302 301 301 301 300 300 300 298 296 297 300 301 301 301 301 301 300 299 299 298 299 298 297 298 299 300 299 299 299 299 299 299 299 299 299 299 298 298 298 297 297 297 297 297 297 297 297 297 297 297 297 296 295 295 294 295 295 295 294 293 293 292 291 291 290 289 289 289 289 291 292 292 293 293 293 293 293 294 294 293
305 304 304 303 302 302 301 301 301 300 301 300 298 296 298 300 301 300 300 301 301 300 299 299 300 300 299 299 299 300 300 299 299 299 299 299 299 299 299 299 299 299 298 298 298 297 297 297 297 297 297 297 297 297 297 297 296 296 295 295 295 296 296 295 295 294 293 292 291 291 290 289 289 289 290 291 292 292 293 293 293 293 293 294 293
304 304 303 303 303 302 302 301 301 301 301 300 297 296 298 299 300 300 300 301 301 300 299 300 301 301 300 299 300 300 300 300 300 300 299 299 299 299 299 299 299 299 299 298 298 298 297 297 297 297 297 297 297 297 297 297 297 296 296 296 296 296 296 296 296 296 295 293 292 291 290 290 289 289 289 290 291 292 292 293 292 292 293 293 294
304 303 303 303 302 302 301 301 301 300 300 299 297 296 297 298 299 300 301 301 301 301 301 301 301 301 300 300 300 300 300 300 300 300 300 300 299 299 299 299 299 299 299 298 298 298 298 297 297 297 297 297 297 297 297 297 297 297 297 297 296 296 296 296 296 296 296 295 293 292 291 290 290 290 289 289 289 290 291 292 292 292 292 293 293
303 303 303 303 302 302 302 301 301 299 298 297 296 295 296 298 300 301 301 301 301 301 301 301 301 301 301 300 300 300 300 300 300 300 300 300 300 299 299 299 299 299 299 298 298 298 298 298 297 297 297 297 297 297 297 297 297 297 297 297 297 297 296 296 296 296 296 296 295 293 292 291 290 290 289 289 289 289 290 291 292 293 292 292 293
303 303 303 303 302 302 301 301 300 299 298 297 296 295 296 298 300 301 301 301 302 301 301 301 301 301 301 300 300 300 300 300 300 300 300 300 299 299 299 299 299 299 298 298 298 298 298 298 297 297 297 297 297 297 298 297 297 298 297 297 297 297 297 297 296 296 296 296 296 295 294 293 291 291 290 290 289 289 289 289 291 292 292 292 292
303 303 303 303 302 301 301 300 300 299 298 296 296 296 297 299 301 302 302 302 302 302 302 301 301 300 300 300 300 300 300 300 300 300 300 299 299 299 299 299 298 298 298 298 298 298 298 298 298 298 298 297 298 298 298 298 298 298 298 298 297 297 297 297 297 296 296 296 296 296 295 294 293 292 291 290 290 290 289 289 289 291 292 292 292
303 303 303 302 301 300 299 299 299 299 298 297 297 297 299 301 302 302 302 302 302 302 301 301 300 300 300 300 300 300 300 300 300 300 300 300 300 300 299 299 299 299 299 299 298 299 298 298 298 298 298 298 298 298 298 298 298 298 298 298 298 297 297 297 297 297 296 296 296 296 296 296 295 294 292 291 291 291 290 289 289 289 290 291 292
303 303 303 302 300 299 299 299 299 299 298 298 299 299 300 301 301 302 302 302 302 301 301 301 301 301 301 300 300 300 300 300 300 300 300 300 300 300 299 299 298 299 299 298 299 299 299 299 298 298 298 298 298 298 298 298 298 298 298 298 298 298 298 297 297 297 297 296 296 296 296 296 296 295 294 293 292 291 291 291 290 289 289 290 291
303 304 304 302 300 299 300 301 300 299 299 299 300 300 301 301 302 302 302 301 301 301 301 301 301 301 301 300 300 300 300 300 299 300 300 300 299 299 299 298 298 298 298 298 298 298 298 299 299 298 298 298 298 298 298 298 298 298 298 298 298 298 298 297 297 297 297 297 296 296 296 296 296 296 295 295 294 293 292 291 291 290 289 289 290
303 304 303 301 300 300 301 301 300 300 301 301 301 302 302 302 302 302 302 302 301 301 301 301 301 301 301 301 300 300 300 299 299 300 300 299 299 298 298 298 298 298 298 298 298 298 298 298 298 298 298 298 298 298 298 298 298 298 298 298 298 298 298 298 298 297 297 297 297 297 296 296 296 296 296 296 295 294 293 292 291 291 290 289 289
303 303 303 301 300 301 301 300 300 301 302 302 302 302 302 302 302 302 301 301 301 301 301 301 301 301 301 301 300 300 300 300 300 300 299 299 298 298 298 298 298 298 298 298 299 298 298 298 298 298 298 298 298 298 299 299 299 298 298 298 298 298 298 298 298 298 298 298 298 297 297 297 296 297 296 296 296 295 295 294 292 291 291 290 290
303 303 302 301 301 301 301 301 301 301 302 302 302 302 302 302 302 301 301 301 301 300 300 301 301 301 301 301 301 301 300 300 300 299 299 299 299 299 299 299 298 298 298 298 298 298 298 298 298 299 299 299 299 299 299 299 299 298 298 298 298 298 298 298 298 298 298 298 298 298 298 297 297 297 297 296 296 296 295 295 294 293 292 291 290
303 303 301 301 300 300 300 300 300 301 302 302 302 302 302 302 302 301 301 301 301 301 301 301 301 301 301 300 300 300 300 299 299 299 299 299 299 299 299 299 299 299 299 299 298 298 298 298 298 299 299 299 299 299 299 299 299 299 298 298 298 298 298 298 298 299 299 299 299 299 298 298 298 298 297 297 296 296 296 296 295 294 293 292 291
Wind_Speed
21 20 20 19 18 17 15 14 13 13 13 12 13 13 12 10 10 11 11 10 8 6 5 4 4 3 3 3 2 2 1 0 1 2 3 4 4 4 3 4 5 6 7 6 6 5 6 8 10 12 13 15 16 18 19 21 21 21 21 22 22 22 24 25 28 33 34 32 33 35 35 37 38 37 37 39 39 39 40 40 41 42 42 42 42
21 20 19 18 16 15 14 14 15 15 14 14 14 14 11 10 12 12 11 9 8 7 5 5 5 4 4 3 3 2 1 1 2 3 3 4 4 4 4 4 5 6 7 8 7 7 7 9 11 13 15 17 19 20 22 22 21 21 21 22 23 23 23 25 28 32 36 35 35 36 37 37 39 38 38 39 39 40 41 42 42 43 44 45 46
19 18 17 16 15 14 14 15 15 15 15 14 14 12 11 13 13 12 10 8 7 7 6 6 5 5 4 4 3 3 2 2 3 3 3 3 4 4 5 4 4 5 7 8 8 8 9 11 12 14 17 20 21 22 23 22 20 20 20 21 23 23 23 24 27 30 34 36 37 38 39 39 39 40 39 39 40 40 42 43 44 45 46 47 48
18 17 17 16 15 14 15 16 16 15 14 14 13 12 13 14 13 11 9 8 7 7 7 6 6 5 5 4 3 3 3 3 3 2 2 3 3 4 5 4 4 5 7 9 9 8 10 12 14 17 19 22 23 23 22 21 19 19 20 21 22 24 24 24 26 28 33 37 38 39 40 41 41 41 41 41 41 41 41 43 45 46 47 48 49
18 17 17 15 14 15 16 16 15 14 13 13 13 14 15 14 13 11 8 7 7 7 7 7 6 6 5 5 4 4 4 3 3 2 2 2 3 4 5 5 5 6 7 9 10 10 11 14 17 19 21 23 23 23 22 20 19 19 20 22 23 24 25 26 27 29 31 36 39 40 41 42 43 43 41 42 43 43 43 42 43 45 48 49 49
18 16 14 13 14 16 17 16 14 14 14 14 14 15 16 15 13 10 8 7 7 7 7 7 6 6 6 5 4 4 3 3 3 3 3 3 3 4 5 5 5 6 8 9 10 10 12 15 17 19 21 23 23 22 20 19 19 20 21 23 24 26 27 28 29 31 32 35 39 41 43 44 45 44 41 41 42 44 44 44 44 45 48 50 51
17 14 12 13 16 18 17 16 15 14 13 14 15 16 16 14 12 10 8 8 8 8 7 7 7 6 6 5 4 4 3 3 3 3 3 2 3 4 5 5 6 7 8 9 9 10 12 14 17 19 21 23 22 20 19 19 20 21 22 24 26 27 29 30 31 33 35 37 39 42 44 45 45 45 42 41 41 42 42 44 48 49 50 50 51
16 14 14 16 18 19 17 16 15 13 13 15 17 17 16 14 11 10 8 8 8 8 7 6 6 6 5 5 4 3 3 3 3 3 3 2 2 3 4 5 6 7 7 7 8 10 11 12 15 18 20 20 19 18 19 20 21 22 23 24 27 28 30 32 34 35 36 38 40 43 45 46 46 45 43 42 43 43 42 43 48 51 52 52 50
17 16 16 18 20 19 18 17 16 14 14 16 18 17 15 13 12 10 9 8 8 7 7 6 6 5 5 5 4 3 3 3 3 3 3 2 2 2 3 4 5 6 6 6 7 8 10 11 14 17 18 17 16 17 18 19 21 24 25 26 28 29 31 33 35 36 36 39 42 44 45 46 45 45 45 44 44 45 45 44 47 50 51 52 51
18 18 18 19 20 20 18 18 17 16 16 18 18 17 16 14 12 11 9 8 8 7 6 6 6 5 5 4 4 3 3 3 3 3 2 2 1 2 3 4 5 6 6 5 6 7 8 11 14 16 15 14 15 16 17 18 20 22 24 26 27 29 32 34 36 36 37 40 42 44 45 45 44 44 45 45 44 45 46 46 48 51 50 52 53
19 21 20 20 21 20 20 19 18 18 19 19 19 18 16 15 13 11 10 9 8 7 6 6 6 5 5 4 4 4 3 3 3 2 2 1 1 2 4 5 5 6 6 5 7 7 7 10 13 13 12 13 15 16 18 19 20 22 24 25 25 26 30 33 36 36 37 39 41 42 42 43 44 44 45 45 45 45 46 46 47 50 49 49 53
22 23 21 21 22 21 22 21 19 20 21 20 19 18 16 15 13 11 10 9 9 8 7 7 6 6 5 5 4 4 3 3 3 2 1 0 1 3 4 6 6 7 6 7 8 7 8 11 13 11 10 12 15 17 19 20 22 24 26 25 24 25 28 31 34 36 37 39 40 40 39 41 44 45 45 45 46 47 47 46 46 48 49 48 50
25 24 22 22 23 23 23 22 21 21 22 21 19 18 17 15 13 12 11 10 9 9 8 7 6 6 6 5 4 4 4 4 3 3 2 1 1 3 5 6 7 7 7 7 8 8 9 12 12 8 8 12 15 18 21 23 24 25 25 26 26 28 30 31 32 33 34 36 36 37 37 40 43 44 43 44 46 48 48 49 48 48 49 48 49
27 25 23 24 24 23 24 23 22 23 23 21 20 19 17 15 14 12 12 11 10 9 8 8 7 7 7 6 5 5 5 4 4 3 2 0 1 3 5 6 7 7 7 8 8 8 10 11 9 7 10 13 15 20 24 26 26 26 26 27 29 30 32 32 32 33 33 33 33 35 36 37 40 42 42 42 44 46 48 50 51 50 49 47 46
27 25 25 25 25 24 25 24 24 25 24 22 21 19 18 16 15 13 12 11 10 9 8 8 8 8 8 7 6 5 4 4 3 2 1 0 1 3 4 6 6 7 7 7 8 8 9 8 7 9 13 15 16 21 25 26 26 27 28 29 30 31 32 33 33 34 34 33 32 33 35 36 38 40 40 41 43 45 46 48 49 49 48 48 46
27 25 25 25 25 26 26 26 26 25 25 23 22 21 19 17 16 14 13 12 11 10 9 9 8 8 8 7 6 4 4 3 3 2 1 1 2 3 4 5 6 7 7 7 7 7 7 6 7 11 14 15 16 21 25 26 26 28 30 31 32 32 32 33 33 33 33 32 31 32 33 35 37 38 38 40 43 46 47 48 47 47 48 49 48
26 24 25 25 26 26 27 27 26 26 25 24 23 22 20 18 16 15 14 13 12 11 10 10 9 9 8 8 6 5 4 3 2 1 0 1 2 3 4 5 6 7 7 7 7 6 5 5 8 12 13 14 17 21 24 26 27 29 31 32 33 34 34 35 34 33 33 32 32 33 33 34 36 38 39 41 43 45 48 50 49 47 47 49 49
25 25 25 25 26 27 27 27 27 26 26 25 23 22 21 19 17 15 14 14 13 11 11 11 11 10 9 8 8 6 5 4 3 2 1 3 4 4 5 5 6 6 6 6 6 4 3 4 7 11 13 14 17 22 25 26 28 30 32 34 35 36 37 37 37 36 35 35 35 34 34 35 39 41 42 43 44 45 47 49 48 46 46 46 47
27 26 25 25 26 27 26 26 26 26 26 25 23 22 21 20 18 16 15 14 14 13 12 12 12 11 11 10 9 8 7 5 4 3 2 3 4 3 3 3 4 4 4 3 3 3 3 4 6 9 12 15 18 22 25 27 28 30 31 34 35 37 38 38 37 37 37 38 38 36 36 38 42 44 46 46 46 47 47 47 46 45 45 46 45
27 25 24 25 26 25 25 25 26 26 25 24 23 22 21 20 19 17 16 14 15 14 14 13 13 13 12 11 10 8 7 6 5 3 3 4 4 4 3 2 2 1 1 2 2 2 3 4 6 9 12 15 19 22 25 27 28 29 30 33 35 37 38 37 36 36 36 38 38 38 38 41 43 46 48 49 49 50 50 48 45 44 44 45 43
27 25 24 25 25 25 25 25 26 25 24 23 23 22 21 20 19 17 16 16 17 17 16 15 14 13 12 10 9 8 6 5 5 4 5 6 5 4 3 2 1 0 1 1 1 2 3 6 8 11 13 16 19 22 25 26 27 28 29 31 32 34 36 37 36 35 35 37 38 39 40 42 45 48 51 52 52 53 53 50 47 44 44 44 42
27 25 25 24 24 25 25 26 26 25 23 23 23 23 21 20 18 17 17 18 19 19 18 17 15 13 11 9 8 7 5 5 4 5 6 6 6 4 3 2 1 0 0 0 1 3 5 8 10 12 15 17 19 22 25 26 26 27 28 29 30 32 34 35 36 35 35 37 39 40 41 43 47 50 52 54 54 55 55 52 49 46 44 42 39
26 26 25 24 24 25 26 27 26 24 23 23 23 23 22 21 20 19 20 21 21 21 19 17 15 13 11 9 7 6 5 4 4 4 5 6 5 4 2 1 1 1 1 1 3 5 7 9 11 13 16 17 19 22 24 25 25 26 28 29 30 31 32 34 36 36 35 36 38 40 42 44 47 51 54 55 56 56 55 54 51 48 47 44 39
27 26 24 24 25 26 27 27 25 24 23 24 23 23 23 23 22 21 22 23 22 21 19 17 15 13 10 8 6 5 3 2 2 4 4 5 5 4 2 1 2 2 2 3 4 6 8 9 11 14 17 19 20 22 24 24 24 25 27 28 29 30 32 34 36 37 35 36 38 39 41 44 47 50 53 55 55 56 56 55 53 50 49 47 44
27 26 25 25 26 27 28 27 25 24 24 24 24 24 25 24 24 23 24 24 23 21 20 18 15 12 10 7 6 4 2 1 1 3 4 4 5 4 3 2 2 2 2 4 5 7 8 10 12 14 17 19 21 23 24 24 24 25 26 27 28 30 31 33 35 36 35 35 36 38 40 43 45 48 51 53 55 56 57 57 56 53 51 50 48
27 26 26 26 27 28 28 27 26 24 24 24 24 24 25 25 25 25 24 24 22 20 19 17 15 12 10 7 5 4 3 2 1 3 4 4 4 4 3 3 2 1 2 4 5 7 8 10 11 14 17 20 22 24 25 25 25 25 25 26 27 29 30 32 34 36 35 34 35 36 39 41 44 46 49 52 55 57 58 58 58 56 54 53 52
27 26 26 27 29 29 28 27 27 26 25 24 24 25 25 26 26 25 25 24 23 21 19 17 15 13 10 7 6 5 4 3 3 3 5 5 5 5 5 5 3 2 2 3 5 7 9 10 12 14 17 20 22 24 26 26 26 26 26 26 26 27 29 30 32 34 34 33 33 35 37 39 43 46 49 52 55 56 57 57 57 56 54 53 53
26 26 27 28 30 29 28 28 27 27 26 26 26 26 26 27 27 26 25 24 23 22 19 17 15 13 10 8 6 5 5 4 4 4 6 6 6 6 7 7 5 4 4 4 5 7 9 11 13 14 17 20 22 25 26 27 27 27 28 27 26 26 27 28 30 31 33 33 33 34 36 39 42 45 49 52 54 56 57 57 57 56 54 52 52
27 27 28 29 30 30 29 28 27 27 27 26 25 26 26 27 26 25 23 22 20 19 16 15 13 12 10 8 7 6 5 5 5 6 7 7 7 8 9 8 8 7 6 5 6 7 9 12 13 15 17 20 23 26 28 29 29 28 28 28 27 26 27 28 31 32 33 34 34 34 36 39 41 44 47 50 53 55 56 57 57 57 55 53 52
28 29 30 31 31 31 30 30 28 27 27 27 27 27 27 26 24 22 21 20 18 16 14 13 12 11 10 9 8 7 6 6 6 7 7 7 8 9 10 9 9 9 8 7 7 8 10 12 14 16 18 20 23 26 28 30 30 30 29 28 27 27 28 29 31 32 32 33 34 34 35 37 40 42 45 48 51 54 56 56 57 57 56 54 52
30 31 31 32 32 31 31 30 29 28 27 27 28 29 29 27 24 23 22 20 18 16 15 15 14 13 11 9 8 8 8 8 8 8 8 8 9 10 9 9 10 10 10 9 8 9 11 13 14 16 18 19 22 25 27 29 30 30 30 28 27 27 28 29 30 32 32 32 33 34 34 36 38 40 43 45 48 52 55 56 57 57 56 54 52
30 32 33 33 33 32 31 30 29 29 28 27 29 31 31 28 26 25 24 21 19 18 17 16 15 13 11 10 10 10 10 10 9 9 9 9 10 10 9 9 10 10 10 10 9 10 11 13 15 17 18 19 21 23 26 28 30 30 30 28 27 27 28 29 30 31 31 32 32 33 34 35 36 38 40 42 45 49 53 55 56 57 56 55 53
31 32 33 34 33 32 32 31 29 29 28 28 30 32 31 29 28 27 25 22 21 20 19 17 16 14 12 13 12 12 12 12 11 10 10 10 10 9 9 9 9 9 10 10 10 11 12 13 15 17 18 19 20 22 24 27 30 31 29 28 27 26 27 27 28 29 30 30 31 32 32 33 34 36 38 40 42 45 49 52 55 55 55 55 54
31 31 32 33 33 33 32 31 30 29 28 28 29 31 31 30 29 28 26 24 22 21 20 19 17 16 15 15 14 13 13 12 11 10 9 8 8 8 8 8 9 9 10 10 11 12 12 13 14 16 18 19 19 21 23 26 30 31 29 27 26 25 25 26 27 28 29 29 30 30 31 31 32 34 36 38 40 42 44 48 51 53 54 54 53
31 31 31 31 31 31 31 30 29 28 27 27 28 30 30 30 29 28 26 24 23 21 19 18 17 17 16 16 15 14 12 11 10 10 9 7 6 6 7 7 7 8 9 10 11 12 12 13 14 16 18 19 19 20 22 25 28 29 28 27 25 24 25 26 27 28 28 29 29 29 30 30 31 32 33 35 38 40 42 44 47 49 51 52 52
31 32 32 31 31 30 30 30 29 28 27 27 27 29 29 29 29 27 25 23 22 20 17 16 16 16 17 16 15 14 12 10 10 10 9 7 6 6 6 6 6 8 9 10 11 12 13 13 14 16 18 19 19 20 21 24 26 27 26 25 25 24 25 26 27 27 28 28 28 28 29 29 30 30 31 32 34 37 39 40 42 45 47 49 50
32 32 32 32 31 31 30 29 27 27 28 27 27 28 29 30 28 26 24 22 21 19 17 16 15 16 16 15 15 14 12 11 11 11 10 9 9 8 8 8 9 10 10 11 11 13 13 13 14 16 17 18 19 19 20 22 24 24 24 23 23 24 25 25 26 27 27 28 28 27 28 28 28 28 29 30 31 34 36 38 39 41 43 46 47
32 31 31 31 31 31 30 27 26 28 29 28 26 28 30 30 28 26 24 21 20 19 19 17 16 16 15 14 14 13 12 12 12 12 12 11 11 10 10 11 12 12 12 12 13 13 14 14 14 15 17 17 18 18 18 19 21 22 22 21 22 23 25 25 26 26 27 28 28 28 27 27 27 27 27 28 28 31 33 36 37 38 40 42 44
32 31 29 29 29 29 28 26 26 28 29 28 26 28 31 30 28 26 24 21 19 19 19 19 19 17 15 13 13 14 14 14 13 12 12 12 12 12 13 14 14 14 14 14 14 15 15 14 14 14 15 16 16 16 16 18 19 20 20 20 21 23 24 25 26 27 27 27 28 28 28 26 25 25 25 26 26 27 29 32 34 36 37 38 39
34 31 28 26 28 29 28 26 25 26 27 27 28 30 31 30 28 26 23 21 20 19 19 19 19 17 14 13 13 14 15 14 13 12 13 13 12 13 14 15 15 15 15 15 15 15 15 14 13 13 14 14 14 14 15 16 18 19 20 21 22 23 23 24 26 27 27 27 27 27 28 27 26 25 25 25 25 25 25 27 30 33 33 33 34
33 31 28 26 26 28 29 27 25 23 24 26 28 29 30 29 28 25 23 21 20 20 19 19 19 17 14 13 13 15 16 15 14 13 13 12 12 13 14 15 15 15 15 15 15 15 15 13 12 11 12 13 13 13 14 16 17 19 21 22 23 24 24 24 25 26 27 27 26 26 27 27 26 25 25 25 24 24 23 23 25 28 30 31 31
32 31 29 26 26 28 29 26 22 20 22 25 28 29 29 29 27 25 23 21 21 20 20 19 19 17 15 14 14 16 17 16 15 14 14 14 14 15 16 16 16 16 16 14 14 14 15 13 12 11 12 12 12 13 14 16 17 19 21 23 24 25 25 24 24 25 26 27 26 25 25 26 26 26 25 25 24 24 23 22 22 24 27 29 29
31 30 27 26 26 27 26 23 21 20 22 25 27 28 29 29 27 25 24 22 22 21 21 20 19 18 16 15 15 16 17 16 16 16 16 16 17 17 17 17 16 16 14 13 12 13 14 14 13 13 12 12 13 14 15 16 18 20 22 23 25 25 26 25 25 25 25 26 26 25 25 25 25 26 26 25 25 24 24 22 20 20 23 25 26
30 29 27 26 26 26 24 22 21 22 22 24 26 28 30 29 27 26 24 24 22 22 21 20 19 19 18 17 17 17 17 17 17 18 18 18 17 17 16 14 13 12 12 12 12 13 14 14 14 14 13 13 13 14 15 16 18 20 22 23 24 25 26 26 26 27 26 25 25 25 24 24 24 25 25 26 26 25 25 24 22 20 20 21 23
32 31 28 27 27 27 25 23 22 22 23 25 27 29 29 29 28 26 26 26 24 23 22 21 20 20 19 19 18 19 19 18 19 19 19 18 17 17 16 15 14 13 13 13 13 14 16 16 16 15 14 13 13 14 15 16 17 19 21 23 25 25 25 26 26 27 27 26 25 24 24 24 24 24 24 25 25 26 25 24 23 22 20 19 20
33 31 29 29 30 28 26 24 23 23 25 27 28 29 29 28 27 26 26 26 25 24 22 22 22 22 22 21 20 20 20 20 20 20 19 19 19 20 19 18 17 17 16 16 16 16 18 18 18 18 17 15 15 15 16 17 18 19 21 23 24 25 25 25 26 27 27 27 26 25 24 23 23 23 24 24 24 24 25 24 23 22 20 18 17
34 31 29 29 30 28 26 24 24 25 26 28 29 29 29 28 27 25 24 24 24 24 23 22 22 22 22 22 22 22 22 23 22 21 21 21 21 20 19 17 16 16 16 16 16 16 18 19 20 20 20 18 17 17 17 18 19 19 20 22 23 23 23 23 23 24 26 27 27 26 25 23 23 22 23 23 23 23 23 23 23 22 21 18 16
34 30 28 29 30 28 26 25 26 27 27 27 27 27 27 27 27 26 25 24 24 24 23 23 23 22 21 21 21 21 22 22 22 22 22 21 19 17 16 15 15 15 15 15 15 15 15 16 17 18 19 19 19 20 20 19 20 20 20 20 20 20 20 20 21 22 23 25 26 26 25 25 23 22 21 22 23 23 23 23 23 22 22 20 17
32 29 28 29 31 29 27 26 27 27 25 24 24 24 24 26 27 27 26 26 25 25 25 24 24 23 22 21 21 20 20 21 22 22 22 19 17 16 16 17 17 17 18 18 18 17 17 17 17 18 19 20 20 21 22 21 21 20 19 19 18 19 19 20 20 20 21 23 24 26 26 25 25 24 22 21 21 22 22 22 22 21 21 21 19
30 28 28 30 30 29 27 27 27 25 23 22 22 22 23 25 26 25 25 26 26 26 26 26 26 25 25 24 24 23 23 23 23 22 21 19 18 19 19 19 19 19 20 20 20 20 20 20 21 21 22 22 22 23 23 23 22 21 20 19 18 18 19 20 20 21 21 21 23 25 26 26 26 25 24 22 21 20 21 21 21 21 20 20 20
29 28 29 30 30 28 27 27 27 26 24 23 22 21 23 24 24 23 22 23 23 23 24 24 24 25 25 25 25 25 24 22 20 19 18 17 18 18 18 18 18 18 18 19 19 19 19 20 20 21 22 22 22 23 24 24 23 22 21 21 20 20 20 21 22 22 22 21 22 24 25 25 25 26 26 25 23 21 20 20 20 20 20 19 19
Wind_Direction
217 218 219 222 225 226 228 226 219 218 220 222 228 235 242 233 211 201 196 190 183 177 179 183 181 175 173 177 176 173 184 290 314 321 321 317 318 324 343 13 16 14 27 38 48 50 40 32 24 21 19 14 10 8 8 8 8 9 7 5 5 0 352 346 337 332 337 341 339 339 342 341 340 341 341 339 339 338 338 338 337 336 334 333 332
219 221 222 225 228 228 225 217 211 212 213 218 228 236 233 214 201 200 197 190 179 175 183 185 179 176 175 183 188 194 218 253 279 301 312 315 321 324 336 8 20 28 43 53 62 61 44 32 25 21 19 15 12 10 9 10 9 8 7 4 3 3 357 348 340 333 333 338 339 338 339 340 339 340 341 340 339 337 336 336 335 334 333 332 331
224 225 227 230 227 222 214 208 208 211 213 219 227 229 218 203 199 200 197 190 181 180 183 182 179 179 183 195 206 214 231 244 262 288 308 318 326 325 335 9 30 42 51 54 59 55 38 28 23 20 18 15 14 12 10 10 9 7 7 5 2 1 360 352 343 336 333 335 338 337 338 339 338 339 340 339 337 336 335 334 334 332 332 331 329
225 228 230 229 221 213 209 209 211 213 213 216 218 215 208 201 199 201 197 191 188 186 183 181 182 185 192 204 217 227 234 240 257 283 309 319 323 323 338 14 43 49 48 46 47 42 28 23 21 18 16 13 11 10 9 10 10 8 5 4 0 356 355 353 346 340 335 333 334 336 336 337 337 338 339 337 336 335 333 332 332 330 329 329 327
225 228 228 225 219 212 209 208 206 204 203 206 207 206 206 205 204 204 200 195 192 189 188 188 187 190 196 205 216 228 235 243 263 284 302 308 315 329 345 11 39 49 46 41 38 33 25 21 19 16 12 9 7 6 8 9 9 7 2 358 355 351 349 349 346 343 338 333 332 333 335 335 336 337 339 337 334 333 332 331 329 327 326 326 325
226 227 224 220 215 207 201 198 196 196 199 203 204 205 206 208 210 207 199 198 196 194 195 195 192 193 198 205 213 224 234 244 261 280 291 300 317 336 350 6 27 41 42 37 31 26 23 18 14 12 8 4 5 6 8 7 4 2 358 353 351 346 344 345 344 341 337 333 331 331 333 335 334 335 338 337 334 332 331 329 326 325 325 324 324
226 225 221 218 212 202 197 195 194 198 206 206 203 204 206 209 213 209 202 200 199 196 198 199 196 195 198 205 212 217 229 242 257 269 278 301 322 336 350 2 17 30 35 31 23 20 20 13 8 7 3 1 4 9 7 3 359 357 354 350 347 343 342 342 341 338 335 332 331 331 332 333 333 334 335 336 333 331 330 326 324 324 325 323 323
224 220 219 218 211 203 202 202 198 202 211 208 202 203 206 208 210 210 207 204 199 197 199 199 198 198 200 203 209 215 224 240 253 262 273 294 313 331 349 0 9 19 23 16 12 14 12 5 2 1 359 0 6 9 5 359 354 351 350 347 344 342 341 340 338 337 335 332 331 331 331 332 333 334 334 335 333 331 329 325 322 322 323 322 321
223 221 220 218 213 209 208 207 204 208 211 206 203 204 207 209 209 208 208 205 200 198 200 199 197 198 198 198 200 208 219 233 242 253 266 277 296 331 348 357 3 11 14 359 353 3 2 355 356 356 355 360 5 3 360 356 350 347 346 344 342 340 339 338 338 338 336 333 332 332 331 332 334 335 334 334 332 329 328 325 321 320 321 320 319
225 227 225 220 214 210 208 206 206 210 210 207 206 208 210 211 210 206 205 203 199 199 203 202 196 192 190 190 192 200 212 220 228 243 258 269 298 333 340 345 352 2 6 349 340 351 351 345 349 351 350 355 359 354 351 350 348 345 343 342 340 338 336 337 339 339 337 334 333 332 331 332 334 335 333 333 332 329 327 324 321 321 322 320 318
227 231 228 219 210 206 205 205 205 208 208 207 208 210 211 212 210 207 205 203 200 200 202 200 194 187 180 177 183 190 196 200 209 228 234 249 305 321 327 328 333 343 347 339 339 343 339 336 341 344 346 352 352 348 346 346 346 345 344 344 342 337 336 338 340 341 338 335 333 332 332 332 333 334 334 333 332 329 327 324 321 321 321 319 318
229 229 224 216 209 205 205 206 206 206 204 204 206 208 210 212 212 210 208 205 202 200 199 196 189 179 172 171 176 176 177 180 184 194 190 179 305 306 312 312 314 323 323 325 333 334 328 331 335 338 348 354 351 346 345 346 346 344 343 343 341 337 339 343 344 342 338 335 333 333 334 333 333 334 336 335 333 330 327 324 321 320 319 317 315
227 223 216 212 209 206 206 207 207 203 201 202 206 208 209 212 213 211 206 204 203 199 194 190 183 175 167 162 163 162 162 165 163 154 146 132 301 299 300 300 305 310 309 313 323 326 327 330 332 338 350 353 351 349 347 347 346 343 341 340 339 340 345 348 348 343 339 337 334 334 334 334 333 334 337 337 333 330 327 325 323 321 318 315 314
221 216 212 211 210 207 208 208 204 201 200 202 206 208 210 210 209 207 205 204 203 199 191 185 179 172 162 153 155 161 157 156 150 138 130 132 319 308 304 304 304 302 303 307 315 323 328 327 329 342 350 350 350 349 348 347 345 342 341 340 341 345 349 351 350 347 344 341 337 334 334 335 334 334 337 338 336 331 328 325 324 322 319 317 317
217 212 211 211 210 208 207 205 201 199 200 202 205 208 209 209 206 204 202 201 199 195 189 184 177 167 155 147 148 153 151 149 148 141 143 302 323 316 311 313 310 303 300 303 310 322 325 320 328 345 348 347 347 346 346 346 344 341 341 342 345 349 352 352 351 349 348 346 341 337 336 337 337 337 339 343 340 334 329 327 327 326 323 322 321
213 210 211 211 210 209 205 201 199 200 201 203 205 209 210 210 208 204 199 197 195 192 185 179 170 159 151 143 137 139 146 148 149 155 199 289 307 308 313 318 316 309 299 296 305 315 314 317 337 345 345 344 344 346 346 345 343 342 342 344 348 351 353 354 354 352 351 349 346 342 341 342 342 343 346 349 346 339 333 332 333 332 327 324 324
212 212 213 212 210 207 204 201 200 201 204 205 206 210 212 211 209 206 203 199 194 190 182 170 159 153 147 139 132 134 141 139 134 136 322 327 327 323 321 316 312 306 294 290 299 304 305 326 339 339 340 343 346 348 348 345 344 343 344 346 349 351 353 354 355 355 355 353 351 348 349 351 351 352 354 355 352 345 339 337 338 336 329 326 326
215 216 215 213 210 206 203 203 203 203 206 208 209 211 212 212 211 209 208 205 197 188 180 167 156 151 147 139 134 132 129 123 113 85 18 345 338 330 322 314 306 298 286 281 288 290 300 327 332 331 338 344 347 350 350 346 344 344 345 347 350 352 353 354 354 355 357 357 355 354 355 357 358 359 360 360 357 352 345 341 340 337 331 330 330
219 217 216 214 210 206 204 205 205 205 208 210 211 212 212 212 212 210 208 207 200 189 178 168 159 153 149 144 136 129 123 116 105 80 39 359 351 347 338 328 314 297 280 268 270 270 285 314 324 332 341 346 348 351 350 347 345 345 345 347 350 352 353 354 354 355 357 357 357 356 356 358 1 2 3 2 0 356 351 347 344 339 335 334 334
218 216 217 214 209 207 206 206 206 207 209 211 212 212 211 211 211 209 204 200 198 190 176 166 162 159 155 148 138 129 120 109 96 74 46 25 20 30 31 16 350 298 249 233 248 263 287 319 333 338 343 348 350 350 350 348 346 344 344 348 351 352 352 353 354 356 357 357 356 356 356 359 3 5 4 4 2 358 355 352 350 345 341 340 339
216 216 216 211 207 206 206 206 207 208 209 211 211 210 211 211 209 207 199 193 193 188 175 167 166 164 159 151 138 128 115 97 80 59 44 34 32 42 48 39 38 138 171 189 254 304 330 343 347 347 347 349 350 349 348 347 345 343 344 348 350 350 350 352 354 356 358 357 356 357 358 1 4 6 5 4 3 360 358 357 354 352 350 348 345
216 216 214 210 207 207 207 207 208 208 209 211 210 209 209 208 206 202 195 191 189 183 175 171 171 169 164 156 142 128 113 93 68 48 38 31 29 37 45 38 35 65 96 71 4 352 354 354 353 353 352 351 349 349 348 346 344 343 344 346 347 348 350 353 355 356 358 359 358 359 1 3 4 6 5 5 4 3 2 1 358 356 357 358 354
218 216 212 208 207 208 209 208 207 208 209 209 209 208 205 202 200 198 193 188 185 181 179 178 176 173 170 163 150 136 119 94 59 36 29 26 25 29 31 358 312 302 355 9 357 353 354 356 355 356 356 355 353 351 349 346 343 343 343 345 346 347 350 354 356 356 358 359 359 1 3 4 4 5 5 5 6 6 5 4 2 0 0 3 5
216 214 211 209 208 209 209 207 206 206 207 207 207 205 202 199 197 195 190 186 184 183 183 184 182 178 175 169 158 147 131 98 47 20 12 13 17 19 18 318 284 292 330 339 341 347 351 355 358 359 0 359 358 356 353 348 344 343 343 345 345 347 350 355 357 357 358 359 359 0 3 4 5 6 6 6 7 7 5 5 6 5 4 6 9
214 213 211 209 208 208 207 205 205 205 205 207 207 202 199 198 196 192 189 188 189 189 189 190 188 183 180 176 168 163 162 136 14 353 350 356 2 5 5 331 301 317 342 335 337 345 348 351 356 360 1 1 1 0 358 354 349 345 345 346 347 349 352 355 358 358 358 358 358 359 2 4 5 7 8 8 9 8 7 8 10 10 9 10 13
213 211 210 208 207 207 205 203 204 204 205 208 208 203 200 200 197 194 193 192 192 193 193 192 190 190 190 186 182 191 207 222 284 322 326 332 337 338 333 317 310 341 358 348 349 351 347 347 353 359 1 1 1 1 0 358 353 349 348 348 349 351 354 357 358 359 358 356 355 356 360 3 5 8 10 10 10 10 9 9 9 11 11 12 14
213 210 208 207 206 206 204 203 203 204 205 208 207 205 203 202 200 198 197 195 194 194 195 194 194 197 198 196 201 218 232 236 254 289 305 310 313 307 297 291 289 298 323 338 352 357 353 350 353 358 0 0 360 0 360 359 357 353 351 351 351 353 356 358 359 359 358 356 354 354 357 1 5 8 11 12 12 12 11 10 9 10 11 12 13
213 209 207 206 205 205 205 204 204 204 207 208 208 206 203 202 202 202 201 199 196 193 193 195 198 202 203 203 214 230 240 246 255 270 282 291 295 290 280 275 272 274 284 309 337 350 353 352 353 356 359 359 359 359 358 358 358 355 353 352 352 354 357 358 359 360 360 357 354 353 356 1 5 9 11 13 13 13 13 13 12 11 12 13 14
210 208 206 206 206 205 205 206 207 207 208 209 209 208 204 202 204 204 201 198 194 192 194 200 204 207 210 215 229 246 259 267 268 268 271 277 282 281 277 269 265 270 282 302 322 335 344 348 349 353 357 358 359 358 357 356 357 356 354 352 352 354 358 359 360 0 1 359 356 354 355 359 4 9 11 13 14 14 15 15 15 15 15 15 15
207 207 207 208 207 206 206 208 209 210 210 210 208 205 203 204 206 204 199 195 194 198 206 213 217 220 224 231 243 260 272 275 271 268 269 271 272 277 278 271 266 271 281 298 316 326 334 342 345 348 353 356 357 358 356 354 354 355 354 353 352 354 358 1 1 360 360 360 358 355 355 357 2 7 10 11 13 15 15 16 17 17 16 16 16
207 207 209 210 208 208 208 209 209 211 212 211 207 203 202 203 204 201 198 198 202 207 213 218 222 226 232 239 249 263 274 276 270 266 267 268 268 273 275 270 267 272 280 292 308 320 328 336 341 344 349 352 355 356 355 352 351 352 353 352 351 354 358 1 2 359 358 -0 -0 358 356 356 0 5 8 11 13 14 15 16 18 19 19 18 18
211 210 211 211 210 210 211 211 211 212 213 211 208 205 204 205 203 200 198 201 206 209 213 218 222 225 233 241 249 261 274 278 270 262 263 265 266 269 272 269 269 275 283 290 300 312 322 331 336 340 344 349 351 353 353 351 349 350 351 350 350 352 355 360 2 0 358 359 1 360 357 356 359 3 7 10 13 15 15 16 17 18 20 21 21
214 212 211 211 211 211 212 213 213 213 213 211 209 208 208 208 204 201 201 204 207 209 214 220 225 229 236 243 250 262 271 271 262 255 258 261 260 264 269 271 275 283 289 293 298 306 317 325 330 336 340 344 347 349 351 350 349 349 350 350 349 350 353 356 360 1 359 359 0 1 359 357 358 1 5 9 12 14 16 16 16 17 19 21 22
216 215 214 213 212 213 213 215 215 215 215 214 212 211 211 210 205 203 205 207 209 212 218 223 228 232 237 244 252 261 265 259 249 247 251 254 254 260 267 275 285 294 298 300 301 305 312 319 326 332 337 341 343 345 348 349 348 348 350 351 350 350 352 354 358 1 0 359 360 1 1 359 359 1 4 8 11 13 16 17 17 17 19 20 21
216 217 218 217 217 216 216 217 217 217 217 217 215 214 212 209 205 206 209 212 214 217 223 228 233 238 242 246 250 253 250 242 237 240 246 250 254 260 265 278 296 304 305 306 305 304 309 316 322 328 334 339 341 341 344 347 347 347 351 352 351 352 353 353 356 0 1 359 360 1 2 1 0 1 4 7 9 11 14 17 18 18 19 20 22
216 217 218 219 219 219 219 219 219 219 219 219 218 215 211 207 205 208 214 219 221 224 229 236 241 242 241 240 238 235 231 229 233 242 249 254 261 265 270 286 305 311 314 315 310 306 307 312 317 323 331 337 339 339 342 345 345 347 352 355 354 355 356 355 356 359 0 360 359 1 2 2 1 1 3 6 9 10 12 15 18 20 21 21 22
217 218 218 218 219 220 220 219 221 223 223 222 219 215 209 206 208 212 218 222 225 229 234 238 237 233 228 224 222 222 224 228 236 246 255 261 267 274 280 290 300 308 317 323 318 309 306 307 311 318 326 334 337 339 342 344 344 347 354 359 0 1 1 360 358 358 359 360 359 0 2 3 2 1 2 5 7 9 11 13 17 20 21 22 24
218 219 219 218 219 219 219 220 222 224 225 223 219 214 208 207 210 217 221 224 229 233 233 230 228 226 222 218 219 224 229 235 240 248 259 267 274 282 287 290 294 301 311 321 321 313 307 304 306 313 323 332 336 339 342 342 341 345 353 1 5 6 6 5 3 1 0 360 359 360 1 3 3 1 1 4 6 7 9 12 15 18 19 22 24
218 219 219 220 221 220 219 221 223 224 225 222 218 212 208 208 213 219 222 224 230 232 226 222 224 227 223 220 224 229 234 239 245 256 268 274 279 285 288 289 292 297 305 313 317 315 309 304 304 312 322 331 336 338 340 340 338 340 347 354 359 3 6 7 5 4 2 1 0 360 360 2 3 2 360 1 4 6 6 8 13 17 18 20 23
216 216 216 219 222 222 220 222 225 227 226 222 216 211 208 211 217 221 222 224 227 226 223 223 227 229 227 226 230 236 241 247 256 268 275 275 277 283 288 289 291 295 300 306 312 314 311 306 307 313 322 330 334 335 335 335 333 334 337 341 345 351 357 2 3 3 2 1 0 0 359 359 1 2 0 360 2 4 5 5 9 14 18 19 21
216 214 212 216 221 222 221 221 225 227 227 223 217 212 211 215 220 222 223 223 225 226 228 230 232 232 233 236 240 243 248 254 262 269 272 274 277 283 288 289 290 293 298 302 307 311 311 309 310 314 320 326 330 330 329 330 330 329 330 332 336 340 345 351 356 359 0 359 359 0 0 360 359 0 0 359 359 1 3 4 5 9 15 19 20
215 212 210 215 220 220 220 222 225 225 223 220 216 214 214 218 221 222 223 225 228 232 236 237 237 236 239 244 248 249 252 257 262 266 270 275 280 283 285 287 291 295 298 300 303 306 307 308 309 311 315 319 322 323 324 325 326 326 327 328 331 333 336 341 346 351 355 357 357 359 0 0 359 359 359 359 358 359 1 3 2 4 10 15 19
213 212 213 217 218 218 218 222 225 222 219 217 216 215 217 220 222 224 226 230 234 237 239 241 241 242 245 250 253 254 256 259 262 266 272 278 282 285 288 291 294 296 295 295 297 300 302 304 308 310 312 313 315 317 319 320 322 323 324 325 328 330 332 335 337 341 347 351 354 356 358 359 359 359 358 358 358 358 360 2 2 1 5 10 14
211 212 215 217 215 213 213 215 219 220 218 219 219 218 218 222 225 228 230 234 237 241 243 245 246 247 249 252 255 257 260 264 267 271 277 282 285 288 291 293 295 294 291 292 294 296 296 300 306 311 312 312 312 315 317 319 319 320 321 322 324 326 329 331 332 333 337 342 347 351 355 357 359 359 357 357 358 358 358 360 0 360 1 5 9
210 213 215 213 209 207 205 207 213 217 218 219 221 220 222 226 230 233 236 238 240 243 246 248 250 250 250 251 254 257 262 268 272 276 279 281 282 285 288 289 290 289 288 289 290 291 292 295 300 306 310 311 311 312 314 317 317 318 318 319 320 321 324 326 327 328 329 333 337 343 348 353 356 358 357 357 357 357 357 358 358 357 358 1 5
211 216 217 210 203 201 202 208 216 219 219 220 222 223 225 229 232 236 239 241 242 244 248 251 254 256 257 257 258 259 263 269 274 276 276 277 280 283 285 287 287 287 286 285 285 286 287 289 291 296 301 305 307 308 309 311 312 313 314 316 317 319 321 322 322 323 324 326 328 333 338 345 350 354 355 356 356 356 356 357 356 355 354 357 1
213 218 218 209 202 203 209 215 219 219 218 219 221 224 227 230 232 235 239 241 242 245 250 254 258 260 262 263 263 264 266 270 272 274 276 280 283 284 284 285 286 286 286 286 285 284 285 286 287 289 292 296 299 300 302 305 308 310 312 315 317 319 321 320 319 320 321 322 322 325 328 334 341 347 351 353 354 354 354 355 356 355 352 351 354
215 217 216 208 203 206 213 218 218 216 216 218 223 228 232 233 234 237 240 243 244 247 250 254 258 261 263 265 265 266 267 268 269 274 280 283 283 281 280 282 284 284 284 285 285 284 284 286 288 289 289 290 292 294 296 298 302 305 310 315 318 320 322 321 319 319 320 320 320 321 322 324 329 336 342 346 350 352 351 352 353 353 351 348 346
217 217 214 209 206 208 215 219 219 217 217 220 225 230 234 236 237 240 243 246 248 249 251 253 256 258 261 263 264 265 266 267 271 277 281 280 278 278 279 281 282 282 282 282 281 280 280 280 282 283 284 286 289 291 293 295 296 299 304 312 318 320 320 319 319 319 320 321 321 321 320 320 322 325 330 335 341 346 348 348 349 349 347 345 344
220 221 216 210 207 211 216 219 217 215 216 219 224 231 237 239 242 245 248 251 253 254 255 257 259 260 262 264 265 267 269 271 275 278 278 276 276 280 282 282 283 284 284 283 282 281 280 279 280 281 282 284 286 288 290 292 293 294 296 302 309 313 314 314 314 315 317 319 321 320 319 320 321 321 321 323 329 335 340 343 345 345 343 341 340
226 224 216 209 208 213 217 217 216 215 216 221 229 238 241 242 243 247 250 254 256 258 260 263 266 267 268 269 269 271 273 274 275 276 276 276 280 283 284 285 287 287 288 287 286 285 283 283 284 285 286 286 286 286 287 289 290 291 291 295 300 304 307 309 311 311 312 314 316 316 316 318 320 320 318 316 316 321 327 333 337 340 340 338 336